Back to catalog

THORAD DELTA 1 DEB

AliveLEO
NORAD 8438·DEBRIS·🇺🇸 United States

Launched Nov 15, 1974 from Vandenberg Space Force Base

Loading…

Next Passes (next 24 hours)

TLE

FreshSource: Space-Track

Epoch: Sep 14, 2026, 08:11 UTC

1 08438U 74089CP  26257.34159168  .00003947  00000-0  23814-2 0  9993
2 08438 101.6512 224.2281 0135642 340.7403  18.8655 14.03008722540159

Track THORAD DELTA 1 DEB in real time with AllMySat

Download on the App Store